Date String (YYYY-MM-DD hh:mm:ss) UTC,Instrument flags,Ambient pressure (hPa),Sample flow (lpm),Bypass flow (lpm),Sample temperature (°C),Ambient temperature (°C),ASC tube jacket temperature (°C),LED temperature (°C),Box temperature (°C),Sample RH (%),Span deviation,Mass concentration (μg/m³),Mass concentration (μg/m³),Mass concentration (μg/m³)
DateTimeUTC,F1_M11,P_M11,Q1_M11,Q2_M11,T1_M11,T2_M11,T3_M11,T4_M11,T5_M11,U1_M11,ZSPAN_M11,X2_M11,X0_M11,X1_M11
2022-12-11 10:00:00,,0822.1,4.99,0.00,22.2,20.8,00.0,31.0,24.1,09.6,0000.0,0007.30,0022.04,0006.15
2022-12-11 10:01:00,,0822.1,4.99,0.00,22.2,20.8,00.0,31.0,24.0,09.6,0000.0,0007.35,0022.32,0006.18
2022-12-11 10:02:00,,0822.0,5.00,0.00,22.2,20.7,00.0,31.0,24.0,09.6,0000.0,0007.37,0021.83,0006.19
2022-12-11 10:03:00,,0822.0,5.02,0.00,22.2,20.7,00.0,31.0,24.0,09.3,0000.0,0007.41,0022.14,0006.19
2022-12-11 10:04:00,,0821.9,4.99,0.00,22.1,20.6,00.0,31.0,24.0,09.3,0000.0,0007.36,0021.60,0006.18
2022-12-11 10:05:00,,0822.1,4.99,0.00,22.1,20.6,00.0,31.0,23.9,09.6,0000.0,0007.32,0020.99,0006.18
2022-12-11 10:06:00,,0821.8,5.00,0.00,22.1,20.5,00.0,31.0,23.9,09.6,0000.0,0007.31,0020.38,0006.18
2022-12-11 10:07:00,,0821.8,5.03,0.00,22.1,20.5,00.0,31.0,23.8,09.6,0000.0,0007.35,0019.11,0006.18
2022-12-11 10:08:00,,0821.8,5.00,0.00,22.0,20.5,00.0,31.0,23.7,09.5,0000.0,0007.38,0018.76,0006.16
2022-12-11 10:09:00,,0821.8,4.99,0.00,22.0,20.5,00.0,31.0,23.7,09.6,0000.0,0007.34,0018.66,0006.14
2022-12-11 10:10:00,,0821.8,4.99,0.00,22.0,20.5,00.0,31.0,23.7,09.6,0000.0,0007.30,0017.98,0006.13
2022-12-11 10:11:00,,0821.8,5.02,0.00,22.0,20.5,00.0,31.0,23.6,09.5,0000.0,0007.24,0017.36,0006.10
2022-12-11 10:12:00,,0821.7,5.00,0.00,21.9,20.4,00.0,30.9,23.6,09.0,0000.0,0007.18,0016.92,0006.04
2022-12-11 10:13:00,,0821.7,4.99,0.00,21.9,20.4,00.0,30.9,23.6,09.1,0000.0,0007.08,0017.60,0005.96
2022-12-11 10:14:00,,0821.8,4.98,0.00,21.9,20.4,00.0,30.9,23.6,08.9,0000.0,0006.96,0017.48,0005.90
2022-12-11 10:15:00,,0821.8,5.02,0.00,21.9,20.4,00.0,30.9,23.5,09.6,0000.0,0006.94,0016.66,0005.90
2022-12-11 10:16:00,,0821.8,5.01,0.00,21.9,20.6,00.0,30.9,23.6,09.8,0000.0,0006.96,0016.44,0005.91
2022-12-11 10:17:00,,0821.8,4.99,0.00,22.0,21.3,00.0,30.9,23.9,10.0,0000.0,0006.99,0016.42,0005.91
2022-12-11 10:18:00,,0821.8,5.00,0.00,22.1,21.9,00.0,30.9,24.1,10.0,0000.0,0006.94,0016.06,0005.90
2022-12-11 10:19:00,,0821.8,4.99,0.00,22.1,21.8,00.0,30.9,24.1,10.0,0000.0,0006.88,0015.08,0005.88
2022-12-11 10:20:00,,0821.9,5.00,0.00,22.2,21.6,00.0,30.9,24.1,10.1,0000.0,0006.85,0014.35,0005.86
2022-12-11 10:21:00,,0822.2,5.01,0.00,22.2,21.4,00.0,30.9,24.1,09.9,0000.0,0006.84,0014.72,0005.81
2022-12-11 10:22:00,,0821.8,5.02,0.00,22.2,21.3,00.0,31.0,24.1,09.7,0000.0,0006.84,0015.25,0005.81
2022-12-11 10:23:00,,0821.8,5.00,0.00,22.2,21.2,00.0,31.0,24.1,09.5,0000.0,0006.88,0014.93,0005.86
2022-12-11 10:24:00,,0821.8,4.98,0.00,22.2,21.1,00.0,31.0,24.1,09.0,0000.0,0006.91,0014.31,0005.89
2022-12-11 10:25:00,,0821.8,4.99,0.00,22.2,21.1,00.0,31.0,24.1,09.1,0000.0,0006.98,0013.95,0005.90
2022-12-11 10:26:00,,0821.8,5.01,0.00,22.2,21.1,00.0,31.0,24.1,09.2,0000.0,0006.99,0015.04,0005.89
2022-12-11 10:27:00,,0821.8,5.02,0.00,22.2,21.0,00.0,31.0,24.1,08.6,0000.0,0006.93,0015.43,0005.80
2022-12-11 10:28:00,,0821.8,4.99,0.00,22.2,21.0,00.0,31.0,24.1,08.3,0000.0,0006.75,0015.04,0005.69
2022-12-11 10:29:00,,0821.8,4.98,0.00,22.2,21.0,00.0,31.0,24.1,08.2,0000.0,0006.58,0015.11,0005.55
2022-12-11 10:30:00,,0821.8,4.99,0.00,22.2,21.0,00.0,31.0,24.1,08.2,0000.0,0006.41,0015.24,0005.42
2022-12-11 10:31:00,,0821.8,5.01,0.00,22.2,21.0,00.0,31.0,24.1,08.2,0000.0,0006.27,0015.19,0005.31
2022-12-11 10:32:00,,0821.8,5.02,0.00,22.2,21.0,00.0,31.0,24.1,08.2,0000.0,0006.12,0015.25,0005.20
2022-12-11 10:33:00,,0821.8,4.99,0.00,22.2,21.0,00.0,31.0,24.1,08.6,0000.0,0006.02,0013.88,0005.12
2022-12-11 10:34:00,,0821.8,4.98,0.00,22.2,21.0,00.0,31.0,24.1,09.2,0000.0,0006.08,0014.07,0005.10
2022-12-11 10:35:00,,0821.8,5.01,0.00,22.2,21.0,00.0,31.0,24.1,09.3,0000.0,0006.10,0014.08,0005.12
2022-12-11 10:36:00,,0821.8,5.02,0.00,22.2,21.0,00.0,31.0,24.1,09.6,0000.0,0006.11,0014.08,0005.14
2022-12-11 10:37:00,,0821.8,4.98,0.00,22.2,21.0,00.0,31.1,24.1,09.6,0000.0,0006.12,0013.31,0005.16
2022-12-11 10:38:00,,0821.8,4.99,0.00,22.2,21.0,00.0,31.1,24.1,09.4,0000.0,0006.13,0014.20,0005.22
2022-12-11 10:39:00,,0821.8,5.01,0.00,22.3,21.0,00.0,31.1,24.1,09.3,0000.0,0006.29,0014.83,0005.33
2022-12-11 10:40:00,,0821.8,5.01,0.00,22.2,21.0,00.0,31.1,24.1,09.5,0000.0,0006.49,0014.83,0005.46
2022-12-11 10:41:00,,0821.8,4.99,0.00,22.2,21.0,00.0,31.1,24.1,09.5,0000.0,0006.63,0014.47,0005.59
2022-12-11 10:42:00,,0821.7,4.99,0.00,22.2,20.9,00.0,31.1,24.1,09.4,0000.0,0006.75,0015.26,0005.71
2022-12-11 10:43:00,,0821.7,5.01,0.00,22.2,20.9,00.0,31.1,24.1,09.0,0000.0,0006.91,0015.36,0005.80
2022-12-11 10:44:00,,0821.7,5.02,0.00,22.2,20.9,00.0,31.1,24.1,09.0,0000.0,0006.98,0016.88,0005.85
2022-12-11 10:45:00,,0821.7,4.99,0.00,22.2,20.9,00.0,31.1,24.1,09.2,0000.0,0006.90,0016.43,0005.85
2022-12-11 10:46:00,,0821.7,4.99,0.00,22.3,20.9,00.0,31.0,24.1,09.3,0000.0,0006.87,0016.21,0005.84
2022-12-11 10:47:00,,0821.7,5.00,0.00,22.2,20.9,00.0,31.1,24.1,09.3,0000.0,0006.87,0016.56,0005.83
2022-12-11 10:48:00,,0821.7,5.02,0.00,22.2,20.9,00.0,31.1,24.1,09.5,0000.0,0006.85,0017.18,0005.84
2022-12-11 10:49:00,,0821.7,5.00,0.00,22.2,20.9,00.0,31.1,24.1,09.5,0000.0,0006.93,0016.22,0005.85
2022-12-11 10:50:00,,0821.8,4.99,0.00,22.2,20.9,00.0,31.1,24.1,09.5,0000.0,0006.94,0015.68,0005.88
2022-12-11 10:51:00,,0821.8,4.98,0.00,22.2,20.9,00.0,31.1,24.1,09.5,0000.0,0006.93,0015.56,0005.89
2022-12-11 10:52:00,,0821.8,5.01,0.00,22.3,20.9,00.0,31.1,24.1,09.5,0000.0,0006.93,0015.47,0005.89
2022-12-11 10:53:00,,0821.8,5.02,0.00,22.2,20.9,00.0,31.1,24.1,09.6,0000.0,0006.96,0015.17,0005.89
2022-12-11 10:54:00,,0821.8,4.98,0.00,22.2,20.9,00.0,31.1,24.0,09.6,0000.0,0007.00,0015.06,0005.92
2022-12-11 10:55:00,,0821.9,4.98,0.00,22.2,20.9,00.0,31.1,24.0,09.6,0000.0,0007.10,0014.00,0005.98
2022-12-11 10:56:00,,0822.1,5.00,0.00,22.3,21.3,00.0,31.0,24.2,09.6,0000.0,0007.19,0014.29,0006.01
2022-12-11 10:57:00,,0822.0,5.01,0.00,22.4,22.0,00.0,31.1,24.4,09.5,0000.5,0007.20,0014.45,0006.02
2022-12-11 10:58:00,,0821.8,5.02,0.00,22.4,22.1,00.0,31.1,24.5,09.4,0001.5,0007.18,0014.27,0006.02
2022-12-11 10:59:00,,0821.8,5.00,0.00,22.4,21.8,00.0,31.1,24.4,09.1,0000.0,0007.16,0014.35,0005.98
